Location: *
(37.5724°S, 58.0067°E)
Time: 08:27:10
(UTC+00:00)

H-2A ROCKET BODY - Pass Details

Date: 22 January 2021
Orbit: 216 x 15031 km, 28.6° (Epoch: 07 March)

Event Time Altitude Azimuth Distance (km) Brightness Sun altitude
Rises 16:27:44 0° 350° (N) 9,207 7.3 -11.1°
Reaches altitude 10° 16:34:59 10° 360° (N) 9,800 7.3 -12.3°
Maximum altitude 18:03:47 40° 63° (ENE) 16,749 8.3 -24.6°
Drops below altitude 10° 19:39:12 10° 102° (ESE) 13,121 8.2 -32.2°
Sets 19:48:52 0° 106° (ESE) 12,471 8.3 -32.5°
